Vertical_Velocity
-6 -5 0 -4 -1 -2 1 -0 -4 2 -4 5 -4 -6 -3 -7 -2 0 0 1 -1 3
1 -4 2 1 1 1 1 -0 -3 -7 -4 -1 -0 5 -2 -2 -3 -4 0 1 -1 -3
2 -1 2 6 -1 -1 2 5 1 -1 -3 -7 -7 -4 -1 2 1 -3 1 0 -1 -2
-4 -1 -7 0 -5 -3 -1 -2 -1 -2 -1 -1 -3 -4 -3 0 2 1 1 3 0 -1
-3 -3 -2 -1 -3 -4 -2 -2 -2 2 2 -2 -2 -1 -3 -2 1 -0 -2 -1 -0 3
3 0 8 -5 2 0 2 2 -2 -4 -5 -5 -1 -0 -2 4 -1 -2 -1 1 1 3
-6 -4 7 -8 2 -4 -5 -4 -2 -1 -2 -1 0 -2 6 3 -1 1 1 0 -1 -1
9 -4 13 1 -1 -2 -0 -0 -0 -2 0 -2 0 0 3 -1 -5 -3 2 1 -0 1
-5 -6 3 -4 -3 -3 -1 -0 -0 2 -0 0 -2 1 4 0 -2 0 -3 -2 1 -1
0 -5 8 -5 1 -1 -2 0 -0 1 -1 3 -6 -1 2 1 -1 0 -0 -1 -2 -1
-11 1 -9 -7 -5 3 -0 -0 0 -0 -0 1 -0 -8 -5 -1 -2 -2 0 -2 -1 -2
11 8 2 6 -1 -4 2 -4 7 -1 0 -2 2 -2 -0 2 -1 2 3 2 1 -0
-3 -2 4 0 -0 2 -2 -4 6 1 -1 -1 -0 -0 -1 -2 -3 -1 0 4 1 -1
-1 6 3 -1 1 -2 0 2 3 1 1 1 -1 0 -1 1 0 -1 2 -0 2 0
Height
5688 5679 5669 5659 5649 5639 5631 5620 5608 5599 5589 5580 5569 5561 5552 5542 5532 5523 5514 5507 5501 5498
5673 5664 5655 5644 5634 5622 5612 5600 5587 5574 5566 5557 5548 5537 5523 5512 5502 5493 5486 5480 5474 5471
5655 5644 5634 5623 5612 5601 5590 5579 5566 5554 5540 5530 5519 5508 5495 5485 5476 5471 5467 5462 5458 5455
5634 5622 5611 5601 5588 5577 5567 5554 5542 5529 5515 5500 5489 5482 5473 5466 5461 5456 5453 5449 5444 5441
5613 5601 5589 5578 5566 5554 5543 5530 5518 5506 5494 5483 5473 5465 5458 5453 5448 5444 5439 5434 5431 5427
5594 5581 5569 5555 5544 5532 5521 5508 5495 5483 5474 5467 5459 5452 5446 5442 5435 5430 5425 5420 5416 5412
5573 5561 5549 5535 5523 5510 5497 5486 5477 5468 5460 5453 5447 5440 5435 5428 5421 5415 5409 5403 5398 5394
5553 5541 5530 5514 5502 5490 5480 5471 5463 5454 5445 5439 5433 5427 5421 5412 5403 5397 5391 5385 5379 5375
5532 5520 5508 5495 5484 5475 5466 5456 5448 5440 5433 5427 5420 5414 5406 5396 5387 5379 5373 5368 5363 5358
5513 5500 5493 5479 5471 5460 5450 5442 5435 5428 5422 5415 5407 5400 5391 5381 5373 5365 5358 5352 5347 5343
5493 5482 5475 5463 5455 5447 5438 5432 5426 5419 5412 5405 5395 5384 5375 5368 5359 5352 5345 5338 5333 5329
5487 5475 5462 5452 5443 5436 5431 5424 5419 5410 5402 5393 5384 5374 5365 5356 5347 5339 5332 5325 5320 5316
5467 5457 5447 5440 5434 5430 5424 5417 5411 5402 5393 5383 5373 5363 5354 5344 5335 5327 5320 5313 5308 5304
5450 5442 5435 5430 5427 5423 5417 5411 5404 5396 5386 5375 5365 5355 5345 5336 5327 5318 5311 5305 5300 5296